This is the latest recevied weather packets stored in our database for station/object E20YUC-1. If no packets are shown the sender has not sent any weather packets the latest 10 day(s).
| Time | Temp. | Humidity | Pressure | Rain* | Wind** | Luminosity | Snow |
|---|---|---|---|---|---|---|---|
| 1787569816 | 33.33° C | 57% | 994.2 hPa | 0 mm | 1.34 m/s, 0° | - | - |
| 1787569516 | 33.33° C | 57% | 994.2 hPa | 0 mm | 0.89 m/s, 0° | - | - |
| 1787569216 | 33.33° C | 56% | 994.1 hPa | 0 mm | 51.41 m/s, 0° | - | - |
| 1787568916 | 33.89° C | 56% | 994 hPa | 0 mm | 3.58 m/s, 0° | - | - |
| 1787568618 | 33.89° C | 56% | 994.2 hPa | 0 mm | 2.24 m/s, 0° | - | - |
| 1787568316 | 33.89° C | 56% | 994.1 hPa | 0 mm | 4.47 m/s, 0° | - | - |
| 1787567716 | 33.89° C | 55% | 993.8 hPa | 0 mm | 2.24 m/s, 0° | - | - |
| 1787567416 | 33.89° C | 55% | 993.7 hPa | 0 mm | 4.02 m/s, 0° | - | - |
| 1787567118 | 2.22° C | 55% | 993.6 hPa | 0 mm | 2.68 m/s, 0° | - | - |
| 1787566516 | 34.44° C | 54% | 993.5 hPa | 0 mm | 0 m/s | - | - |
| 1787566216 | 34.44° C | 54% | 993.6 hPa | 0 mm | 2.68 m/s, 0° | - | - |
| 1787565916 | 34.44° C | 54% | 993.4 hPa | 0 mm | 0.89 m/s, 0° | - | - |
| 1787565618 | 35° C | 54% | 993.2 hPa | 0 mm | 51.41 m/s, 0° | - | - |
| 1787565316 | 35° C | 54% | 993.1 hPa | 0 mm | 1.79 m/s, 0° | - | - |
| 1787565016 | 35° C | 54% | 993.1 hPa | 0 mm | 4.47 m/s, 0° | - | - |
| 1787564716 | 35° C | 54% | 993.2 hPa | 0 mm | 2.68 m/s, 0° | - | - |
| 1787564416 | 35° C | 54% | 993.1 hPa | 0 mm | 3.58 m/s, 0° | - | - |
| 1787564117 | 35° C | 54% | 993 hPa | 0 mm | 5.36 m/s, 0° | - | - |
| 1787563816 | 35° C | 54% | 993.2 hPa | 0 mm | 5.81 m/s, 0° | - | - |
| 1787563515 | 35° C | 54% | 993.3 hPa | 0 mm | 4.47 m/s, 0° | - | - |
| 1787563215 | 35° C | 54% | 993.3 hPa | 0 mm | 2.24 m/s, 0° | - | - |
| 1787562915 | 35° C | 54% | 993.3 hPa | 0 mm | 3.58 m/s, 0° | - | - |
| 1787562617 | 35° C | 54% | 993.2 hPa | 0 mm | 1.34 m/s, 0° | - | - |
| 1787562315 | 25° C | 53% | 993.5 hPa | 0 mm | 4.02 m/s, 0° | - | - |
| 1787562015 | 35° C | 54% | 993.4 hPa | 0 mm | 6.71 m/s, 0° | - | - |
* Rain latest hour (hover to see other rain measurements)
** Current wind speed in m/s (hover to see current wind gust speed)